Find CP5

NORAD ID: 38763 Int'l Des: 2012-048 Owner: CALP Country: US operational
LEO

Live-Position

3D-Globus wird geladen...

Über CP5

Beschreibung wird geladen...

Nächste Überflüge

Passes for default location (London). Set your location on the main map for personalized predictions.

Höhenverlauf

Loading altitude history...

Zweizeiliger Elementsatz

1 38763U 12048F 26105.78266493 .00005952 00000-0 21168-3 0 9993
2 38763 64.6477 358.5783 0090901 195.2167 164.6226 15.26147217107238
Epoch: 15. Apr. 2026 • Age: 7 hours

Aktueller Status

Höhe 463.8 km
Geschwindigkeit 7.66 km/s
Subsatellitenpunkt -53.00°S, 19.89°W
Startdatum 13. Sept. 2012
Alter 13.5 years
Typ other

Technische Details

Klassifizierung Payload
Masse 1.00 kg
Trockenmasse 1.00 kg
Gesamtmasse 1.00 kg
Länge 0.10 m
Durchmesser 0.10 m
Spannweite 0.20 m
Form Box+Ant
Hersteller CALP
Bus-Typ Cubesat 1U
Phasenstatus In Orbit
Besitzer/Staat CALP/US

Most Searched